UFO 4 (USA 108)

Last updated on Thu Nov 21 2024 00:02:40 GMT+0000 (Coordinated Universal Time)

1 23467U 95003A 24325.44185828 -.00000021 00000+0 00000+0 0 9997 2 23467 9.6931 15.0001 0005433 205.8855 170.4353 1.00282408109207
UTC large
Height (km)
Speed (km/s)
/
Latitude / Longitude
Inclination (degrees)
Orbital Period (minutes)
Azimuth
Elevation
Range (km)
Doppler Factor

Next 0 passes for location: London (51.5072 / 0.1276)

Sorry there are no passes over London.